owner,sensor,date,latitude,longitude,vertical_datum,wind_speed,wind_to_direction,wind_speed_of_gust,qcFlag 
TCOON,ioos:station:TCOON:031:1,2017-08-01T00:00:00Z,28.4073,-96.7122,0.0,5.0,96.0,7.1,'11111222,11111222,11111222' 
TCOON,ioos:station:TCOON:031:1,2017-08-01T00:06:00Z,28.4073,-96.7122,0.0,6.2,95.0,8.3,'11111222,11111222,11111222' 
TCOON,ioos:station:TCOON:031:1,2017-08-01T00:12:00Z,28.4073,-96.7122,0.0,5.2,88.0,7.8,'11111222,11111222,11111222' 
TCOON,ioos:station:TCOON:031:1,2017-08-01T00:18:00Z,28.4073,-96.7122,0.0,5.2,88.0,7.8,'1111122,1111122,1111122' 
TCOON,ioos:station:TCOON:031:1,2017-08-01T00:24:00Z,28.4073,-96.7122,0.0,5.4,93.0,7.3,'11111222,11111222,11111222' 
TCOON,ioos:station:TCOON:031:1,2017-08-01T00:30:00Z,28.4073,-96.7122,0.0,5.5,91.0,7.9,'11111222,11111222,11111222' 
TCOON,ioos:station:TCOON:031:1,2017-08-01T00:36:00Z,28.4073,-96.7122,0.0,4.7,92.0,6.2,'11111222,11111222,11111222' 
TCOON,ioos:station:TCOON:031:1,2017-08-01T00:42:00Z,28.4073,-96.7122,0.0,5.6,95.0,7.5,'11111222,11111222,11111222' 
TCOON,ioos:station:TCOON:031:1,2017-08-01T00:48:00Z,28.4073,-96.7122,0.0,4.5,97.0,6.7,'11111222,11111222,11111222' 
TCOON,ioos:station:TCOON:031:1,2017-08-01T00:54:00Z,28.4073,-96.7122,0.0,4.2,92.0,6.2,'11111222,11111222,11111222' 
TCOON,ioos:station:TCOON:031:1,2017-08-01T01:00:00Z,28.4073,-96.7122,0.0,4.0,88.0,6.7,'11111222,11111222,11111222' 
TCOON,ioos:station:TCOON:031:1,2017-08-01T01:06:00Z,28.4073,-96.7122,0.0,4.0,88.0,6.2,'11111222,11111222,11111222' 
TCOON,ioos:station:TCOON:031:1,2017-08-01T01:12:00Z,28.4073,-96.7122,0.0,3.4,90.0,6.0,'11111222,11111222,11111222' 
TCOON,ioos:station:TCOON:031:1,2017-08-01T01:18:00Z,28.4073,-96.7122,0.0,3.4,90.0,6.0,'1111122,1111122,1111122' 
TCOON,ioos:station:TCOON:031:1,2017-08-01T01:24:00Z,28.4073,-96.7122,0.0,3.9,94.0,6.1,'11111222,11111222,11111222' 
TCOON,ioos:station:TCOON:031:1,2017-08-01T01:30:00Z,28.4073,-96.7122,0.0,3.7,91.0,5.5,'11111222,11111222,11111222' 
TCOON,ioos:station:TCOON:031:1,2017-08-01T01:36:00Z,28.4073,-96.7122,0.0,3.0,88.0,4.9,'11111222,11111222,11111222' 
TCOON,ioos:station:TCOON:031:1,2017-08-01T01:42:00Z,28.4073,-96.7122,0.0,3.4,87.0,4.7,'11111222,11111222,11111222' 
TCOON,ioos:station:TCOON:031:1,2017-08-01T01:48:00Z,28.4073,-96.7122,0.0,2.9,84.0,5.7,'11111222,11111222,11111222' 
TCOON,ioos:station:TCOON:031:1,2017-08-01T01:54:00Z,28.4073,-96.7122,0.0,3.3,87.0,5.1,'11111222,11111222,11111222' 
TCOON,ioos:station:TCOON:031:1,2017-08-01T02:00:00Z,28.4073,-96.7122,0.0,2.7,87.0,4.4,'11111222,11111222,11111222' 
TCOON,ioos:station:TCOON:031:1,2017-08-01T02:06:00Z,28.4073,-96.7122,0.0,2.5,83.0,3.9,'11111222,11111222,11111222' 
TCOON,ioos:station:TCOON:031:1,2017-08-01T02:12:00Z,28.4073,-96.7122,0.0,2.0,80.0,3.0,'11111222,11111222,11111222' 
TCOON,ioos:station:TCOON:031:1,2017-08-01T02:18:00Z,28.4073,-96.7122,0.0,2.0,80.0,3.0,'1111122,1111122,1111122' 
TCOON,ioos:station:TCOON:031:1,2017-08-01T02:24:00Z,28.4073,-96.7122,0.0,0.9,74.0,2.2,'11111222,11111222,11111222' 
TCOON,ioos:station:TCOON:031:1,2017-08-01T02:30:00Z,28.4073,-96.7122,0.0,1.0,74.0,2.1,'11111222,11111222,11111222' 
TCOON,ioos:station:TCOON:031:1,2017-08-01T02:36:00Z,28.4073,-96.7122,0.0,0.5,78.0,2.0,'11111222,11111222,11111222' 
TCOON,ioos:station:TCOON:031:1,2017-08-01T02:42:00Z,28.4073,-96.7122,0.0,0.6,72.0,2.0,'11111222,11111222,11111222' 
TCOON,ioos:station:TCOON:031:1,2017-08-01T02:48:00Z,28.4073,-96.7122,0.0,1.2,66.0,1.9,'11111222,11111222,11111222' 
TCOON,ioos:station:TCOON:031:1,2017-08-01T02:54:00Z,28.4073,-96.7122,0.0,0.3,78.0,2.0,'11111222,11111222,11111222' 
TCOON,ioos:station:TCOON:031:1,2017-08-01T03:00:00Z,28.4073,-96.7122,0.0,0.2,71.0,1.6,'11111222,11111222,11111222' 
TCOON,ioos:station:TCOON:031:1,2017-08-01T03:06:00Z,28.4073,-96.7122,0.0,0.1,76.0,1.3,'11111222,11111222,11111222' 
TCOON,ioos:station:TCOON:031:1,2017-08-01T03:12:00Z,28.4073,-96.7122,0.0,0.2,83.0,1.8,'11111222,11111222,11111222' 
TCOON,ioos:station:TCOON:031:1,2017-08-01T03:18:00Z,28.4073,-96.7122,0.0,0.2,83.0,1.8,'1111122,1111122,1111122' 
TCOON,ioos:station:TCOON:031:1,2017-08-01T03:24:00Z,28.4073,-96.7122,0.0,1.0,84.0,2.1,'11111222,11111222,11111222' 
TCOON,ioos:station:TCOON:031:1,2017-08-01T03:30:00Z,28.4073,-96.7122,0.0,1.0,84.0,1.9,'11111222,11111222,11111222' 
TCOON,ioos:station:TCOON:031:1,2017-08-01T03:36:00Z,28.4073,-96.7122,0.0,0.5,87.0,2.0,'11111222,11111222,11111222' 
TCOON,ioos:station:TCOON:031:1,2017-08-01T03:42:00Z,28.4073,-96.7122,0.0,0.0,78.0,1.6,'11111222,11111222,11111222' 
TCOON,ioos:station:TCOON:031:1,2017-08-01T03:48:00Z,28.4073,-96.7122,0.0,0.0,84.0,0.0,'11111222,11111222,11111222' 
TCOON,ioos:station:TCOON:031:1,2017-08-01T03:54:00Z,28.4073,-96.7122,0.0,0.0,78.0,0.0,'11111222,11111222,11111222' 
TCOON,ioos:station:TCOON:031:1,2017-08-01T04:00:00Z,28.4073,-96.7122,0.0,0.0,66.0,0.0,'11111222,11111222,11111222' 
TCOON,ioos:station:TCOON:031:1,2017-08-01T04:06:00Z,28.4073,-96.7122,0.0,0.0,56.0,0.0,'11111222,11111222,11111222' 
TCOON,ioos:station:TCOON:031:1,2017-08-01T04:12:00Z,28.4073,-96.7122,0.0,0.0,59.0,0.0,'11111222,11111222,11111222' 
TCOON,ioos:station:TCOON:031:1,2017-08-01T04:18:00Z,28.4073,-96.7122,0.0,0.0,59.0,0.0,'1114422,1111122,1114422' 
TCOON,ioos:station:TCOON:031:1,2017-08-01T04:24:00Z,28.4073,-96.7122,0.0,0.0,77.0,0.0,'11111222,11111222,11111222' 
TCOON,ioos:station:TCOON:031:1,2017-08-01T04:30:00Z,28.4073,-96.7122,0.0,0.0,81.0,0.0,'11111222,11111222,11111222' 
TCOON,ioos:station:TCOON:031:1,2017-08-01T04:36:00Z,28.4073,-96.7122,0.0,0.0,66.0,0.0,'11111222,11111222,11111222' 
TCOON,ioos:station:TCOON:031:1,2017-08-01T04:42:00Z,28.4073,-96.7122,0.0,0.0,80.0,0.0,'11111222,11111222,11111222' 
TCOON,ioos:station:TCOON:031:1,2017-08-01T04:48:00Z,28.4073,-96.7122,0.0,0.0,81.0,1.5,'11111222,11111222,11111222' 
TCOON,ioos:station:TCOON:031:1,2017-08-01T04:54:00Z,28.4073,-96.7122,0.0,0.0,76.0,0.0,'11111222,11111222,11111222' 
TCOON,ioos:station:TCOON:031:1,2017-08-01T05:00:00Z,28.4073,-96.7122,0.0,0.0,73.0,0.0,'11111222,11111222,11111222' 
TCOON,ioos:station:TCOON:031:1,2017-08-01T05:06:00Z,28.4073,-96.7122,0.0,0.0,87.0,0.0,'11111222,11111222,11111222' 
TCOON,ioos:station:TCOON:031:1,2017-08-01T05:12:00Z,28.4073,-96.7122,0.0,0.0,86.0,0.0,'11111222,11111222,11111222' 
TCOON,ioos:station:TCOON:031:1,2017-08-01T05:18:00Z,28.4073,-96.7122,0.0,0.0,86.0,0.0,'1114422,1111122,1114422' 
TCOON,ioos:station:TCOON:031:1,2017-08-01T05:24:00Z,28.4073,-96.7122,0.0,0.6,72.0,2.0,'11111222,11111222,11111222' 
TCOON,ioos:station:TCOON:031:1,2017-08-01T05:30:00Z,28.4073,-96.7122,0.0,1.0,67.0,2.3,'11111222,11111222,11111222' 
TCOON,ioos:station:TCOON:031:1,2017-08-01T05:36:00Z,28.4073,-96.7122,0.0,1.4,66.0,2.1,'11111222,11111222,11111222' 
TCOON,ioos:station:TCOON:031:1,2017-08-01T05:42:00Z,28.4073,-96.7122,0.0,1.5,58.0,1.9,'11111222,11111222,11111222' 
TCOON,ioos:station:TCOON:031:1,2017-08-01T05:48:00Z,28.4073,-96.7122,0.0,1.7,61.0,2.5,'11111222,11111222,11111222' 
TCOON,ioos:station:TCOON:031:1,2017-08-01T05:54:00Z,28.4073,-96.7122,0.0,1.5,46.0,2.3,'11111222,11111222,11111222' 
TCOON,ioos:station:TCOON:031:1,2017-08-01T06:00:00Z,28.4073,-96.7122,0.0,1.0,48.0,2.0,'11111222,11111222,11111222' 
TCOON,ioos:station:TCOON:031:1,2017-08-01T06:06:00Z,28.4073,-96.7122,0.0,1.5,60.0,2.0,'11111222,11111222,11111222' 
TCOON,ioos:station:TCOON:031:1,2017-08-01T06:12:00Z,28.4073,-96.7122,0.0,1.9,66.0,2.2,'11111222,11111222,11111222' 
TCOON,ioos:station:TCOON:031:1,2017-08-01T06:18:00Z,28.4073,-96.7122,0.0,1.2,60.0,1.6,'1111122,1111122,1111122' 
TCOON,ioos:station:TCOON:031:1,2017-08-01T06:24:00Z,28.4073,-96.7122,0.0,2.0,62.0,2.5,'11111222,11111222,11111222' 
TCOON,ioos:station:TCOON:031:1,2017-08-01T06:30:00Z,28.4073,-96.7122,0.0,1.6,58.0,2.0,'11111222,11111222,11111222' 
TCOON,ioos:station:TCOON:031:1,2017-08-01T06:36:00Z,28.4073,-96.7122,0.0,2.0,67.0,2.6,'11111222,11111222,11111222' 
TCOON,ioos:station:TCOON:031:1,2017-08-01T06:42:00Z,28.4073,-96.7122,0.0,1.6,57.0,2.4,'11111222,11111222,11111222' 
TCOON,ioos:station:TCOON:031:1,2017-08-01T06:48:00Z,28.4073,-96.7122,0.0,1.7,60.0,2.3,'11111222,11111222,11111222' 
TCOON,ioos:station:TCOON:031:1,2017-08-01T06:54:00Z,28.4073,-96.7122,0.0,1.1,48.0,2.2,'11111222,11111222,11111222' 
TCOON,ioos:station:TCOON:031:1,2017-08-01T07:00:00Z,28.4073,-96.7122,0.0,1.1,31.0,1.9,'11111222,11111222,11111222' 
TCOON,ioos:station:TCOON:031:1,2017-08-01T07:06:00Z,28.4073,-96.7122,0.0,1.3,13.0,1.8,'11111222,11111222,11111222' 
TCOON,ioos:station:TCOON:031:1,2017-08-01T07:12:00Z,28.4073,-96.7122,0.0,1.3,21.0,1.8,'11111222,11111222,11111222' 
TCOON,ioos:station:TCOON:031:1,2017-08-01T07:18:00Z,28.4073,-96.7122,0.0,0.4,14.0,1.3,'1111122,1111122,1111122' 
TCOON,ioos:station:TCOON:031:1,2017-08-01T07:24:00Z,28.4073,-96.7122,0.0,1.6,10.0,2.2,'11111222,11111222,11111222' 
TCOON,ioos:station:TCOON:031:1,2017-08-01T07:30:00Z,28.4073,-96.7122,0.0,1.3,15.0,1.9,'11111222,11111222,11111222' 
TCOON,ioos:station:TCOON:031:1,2017-08-01T07:36:00Z,28.4073,-96.7122,0.0,2.0,358.0,2.4,'11111222,11111222,11111222' 
TCOON,ioos:station:TCOON:031:1,2017-08-01T07:42:00Z,28.4073,-96.7122,0.0,1.7,8.0,2.6,'11111222,11111222,11111222' 
TCOON,ioos:station:TCOON:031:1,2017-08-01T07:48:00Z,28.4073,-96.7122,0.0,2.0,8.0,2.7,'11111222,11111222,11111222' 
TCOON,ioos:station:TCOON:031:1,2017-08-01T07:54:00Z,28.4073,-96.7122,0.0,1.8,2.0,2.6,'11111222,11111222,11111222' 
TCOON,ioos:station:TCOON:031:1,2017-08-01T08:00:00Z,28.4073,-96.7122,0.0,2.1,355.0,2.8,'11111222,11111222,11111222' 
TCOON,ioos:station:TCOON:031:1,2017-08-01T08:06:00Z,28.4073,-96.7122,0.0,1.7,355.0,2.8,'11111222,11111222,11111222' 
TCOON,ioos:station:TCOON:031:1,2017-08-01T08:12:00Z,28.4073,-96.7122,0.0,2.2,5.0,2.8,'11111222,11111222,11111222' 
TCOON,ioos:station:TCOON:031:1,2017-08-01T08:18:00Z,28.4073,-96.7122,0.0,1.8,1.0,2.6,'1111122,1111122,1111122' 
TCOON,ioos:station:TCOON:031:1,2017-08-01T08:24:00Z,28.4073,-96.7122,0.0,1.8,2.0,2.3,'11111222,11111222,11111222' 
TCOON,ioos:station:TCOON:031:1,2017-08-01T08:30:00Z,28.4073,-96.7122,0.0,1.1,22.0,2.5,'11111222,11111222,11111222' 
TCOON,ioos:station:TCOON:031:1,2017-08-01T08:36:00Z,28.4073,-96.7122,0.0,1.3,33.0,1.9,'11111222,11111222,11111222' 
TCOON,ioos:station:TCOON:031:1,2017-08-01T08:42:00Z,28.4073,-96.7122,0.0,1.5,23.0,1.8,'11111222,11111222,11111222' 
TCOON,ioos:station:TCOON:031:1,2017-08-01T08:48:00Z,28.4073,-96.7122,0.0,1.3,30.0,1.7,'11111222,11111222,11111222' 
TCOON,ioos:station:TCOON:031:1,2017-08-01T08:54:00Z,28.4073,-96.7122,0.0,1.2,36.0,1.7,'11111222,11111222,11111222' 
TCOON,ioos:station:TCOON:031:1,2017-08-01T09:00:00Z,28.4073,-96.7122,0.0,1.1,26.0,1.8,'11111222,11111222,11111222' 
TCOON,ioos:station:TCOON:031:1,2017-08-01T09:06:00Z,28.4073,-96.7122,0.0,1.4,23.0,1.8,'11111222,11111222,11111222' 
TCOON,ioos:station:TCOON:031:1,2017-08-01T09:12:00Z,28.4073,-96.7122,0.0,1.0,16.0,1.8,'11111222,11111222,11111222' 
TCOON,ioos:station:TCOON:031:1,2017-08-01T09:18:00Z,28.4073,-96.7122,0.0,0.0,10.0,1.3,'1114422,1111122,1111122' 
TCOON,ioos:station:TCOON:031:1,2017-08-01T09:24:00Z,28.4073,-96.7122,0.0,1.3,12.0,1.9,'11111222,11111222,11111222' 
TCOON,ioos:station:TCOON:031:1,2017-08-01T09:30:00Z,28.4073,-96.7122,0.0,1.6,11.0,1.9,'11111222,11111222,11111222' 
TCOON,ioos:station:TCOON:031:1,2017-08-01T09:36:00Z,28.4073,-96.7122,0.0,1.5,9.0,1.9,'11111222,11111222,11111222' 
TCOON,ioos:station:TCOON:031:1,2017-08-01T09:42:00Z,28.4073,-96.7122,0.0,2.0,4.0,2.5,'11111222,11111222,11111222' 
TCOON,ioos:station:TCOON:031:1,2017-08-01T09:48:00Z,28.4073,-96.7122,0.0,2.0,3.0,2.4,'11111222,11111222,11111222' 
TCOON,ioos:station:TCOON:031:1,2017-08-01T09:54:00Z,28.4073,-96.7122,0.0,2.3,4.0,2.9,'11111222,11111222,11111222' 
TCOON,ioos:station:TCOON:031:1,2017-08-01T10:00:00Z,28.4073,-96.7122,0.0,2.5,3.0,2.9,'11111222,11111222,11111222' 
TCOON,ioos:station:TCOON:031:1,2017-08-01T10:06:00Z,28.4073,-96.7122,0.0,2.6,5.0,3.1,'11111222,11111222,11111222' 
TCOON,ioos:station:TCOON:031:1,2017-08-01T10:12:00Z,28.4073,-96.7122,0.0,1.9,8.0,2.6,'11111222,11111222,11111222' 
TCOON,ioos:station:TCOON:031:1,2017-08-01T10:18:00Z,28.4073,-96.7122,0.0,1.4,4.0,2.5,'1111122,1111122,1111122' 
TCOON,ioos:station:TCOON:031:1,2017-08-01T10:24:00Z,28.4073,-96.7122,0.0,2.0,16.0,2.8,'11111222,11111222,11111222' 
TCOON,ioos:station:TCOON:031:1,2017-08-01T10:30:00Z,28.4073,-96.7122,0.0,2.2,15.0,2.7,'11111222,11111222,11111222' 
TCOON,ioos:station:TCOON:031:1,2017-08-01T10:36:00Z,28.4073,-96.7122,0.0,1.4,35.0,2.5,'11111222,11111222,11111222' 
TCOON,ioos:station:TCOON:031:1,2017-08-01T10:42:00Z,28.4073,-96.7122,0.0,1.5,29.0,1.8,'11111222,11111222,11111222' 
TCOON,ioos:station:TCOON:031:1,2017-08-01T10:48:00Z,28.4073,-96.7122,0.0,1.9,16.0,2.2,'11111222,11111222,11111222' 
TCOON,ioos:station:TCOON:031:1,2017-08-01T10:54:00Z,28.4073,-96.7122,0.0,2.3,19.0,2.6,'11111222,11111222,11111222' 
TCOON,ioos:station:TCOON:031:1,2017-08-01T11:00:00Z,28.4073,-96.7122,0.0,1.6,20.0,2.5,'11111222,11111222,11111222' 
TCOON,ioos:station:TCOON:031:1,2017-08-01T11:06:00Z,28.4073,-96.7122,0.0,0.9,22.0,2.1,'11111222,11111222,11111222' 
TCOON,ioos:station:TCOON:031:1,2017-08-01T11:12:00Z,28.4073,-96.7122,0.0,1.3,24.0,1.6,'11111222,11111222,11111222' 
TCOON,ioos:station:TCOON:031:1,2017-08-01T11:18:00Z,28.4073,-96.7122,0.0,0.5,17.0,1.1,'1111122,1111122,1111122' 
TCOON,ioos:station:TCOON:031:1,2017-08-01T11:24:00Z,28.4073,-96.7122,0.0,2.0,13.0,2.3,'11111222,11111222,11111222' 
TCOON,ioos:station:TCOON:031:1,2017-08-01T11:30:00Z,28.4073,-96.7122,0.0,1.7,20.0,2.4,'11111222,11111222,11111222' 
TCOON,ioos:station:TCOON:031:1,2017-08-01T11:36:00Z,28.4073,-96.7122,0.0,1.4,17.0,2.0,'11111222,11111222,11111222' 
TCOON,ioos:station:TCOON:031:1,2017-08-01T11:42:00Z,28.4073,-96.7122,0.0,1.8,9.0,2.2,'11111222,11111222,11111222' 
TCOON,ioos:station:TCOON:031:1,2017-08-01T11:48:00Z,28.4073,-96.7122,0.0,1.6,16.0,2.0,'11111222,11111222,11111222' 
TCOON,ioos:station:TCOON:031:1,2017-08-01T11:54:00Z,28.4073,-96.7122,0.0,1.7,11.0,1.9,'11111222,11111222,11111222' 
TCOON,ioos:station:TCOON:031:1,2017-08-01T12:00:00Z,28.4073,-96.7122,0.0,2.0,0.0,2.4,'11111222,11111222,11111222' 
TCOON,ioos:station:TCOON:031:1,2017-08-01T12:06:00Z,28.4073,-96.7122,0.0,1.9,6.0,2.9,'11111222,11111222,11111222' 
TCOON,ioos:station:TCOON:031:1,2017-08-01T12:12:00Z,28.4073,-96.7122,0.0,2.1,349.0,2.6,'11111222,11111222,11111222' 
TCOON,ioos:station:TCOON:031:1,2017-08-01T12:18:00Z,28.4073,-96.7122,0.0,1.8,341.0,2.2,'1111122,1111122,1111122' 
TCOON,ioos:station:TCOON:031:1,2017-08-01T12:24:00Z,28.4073,-96.7122,0.0,2.1,349.0,2.9,'11111222,11111222,11111222' 
TCOON,ioos:station:TCOON:031:1,2017-08-01T12:30:00Z,28.4073,-96.7122,0.0,2.4,353.0,3.3,'11111222,11111222,11111222' 
TCOON,ioos:station:TCOON:031:1,2017-08-01T12:36:00Z,28.4073,-96.7122,0.0,2.5,347.0,3.1,'11111222,11111222,11111222' 
TCOON,ioos:station:TCOON:031:1,2017-08-01T12:42:00Z,28.4073,-96.7122,0.0,2.5,352.0,3.0,'11111222,11111222,11111222' 
TCOON,ioos:station:TCOON:031:1,2017-08-01T12:48:00Z,28.4073,-96.7122,0.0,2.0,358.0,2.9,'11111222,11111222,11111222' 
TCOON,ioos:station:TCOON:031:1,2017-08-01T12:54:00Z,28.4073,-96.7122,0.0,2.6,4.0,3.2,'11111222,11111222,11111222' 
TCOON,ioos:station:TCOON:031:1,2017-08-01T13:00:00Z,28.4073,-96.7122,0.0,2.2,6.0,2.8,'11111222,11111222,11111222' 
TCOON,ioos:station:TCOON:031:1,2017-08-01T13:06:00Z,28.4073,-96.7122,0.0,2.4,7.0,3.1,'11111222,11111222,11111222' 
TCOON,ioos:station:TCOON:031:1,2017-08-01T13:12:00Z,28.4073,-96.7122,0.0,2.1,1.0,3.1,'11111222,11111222,11111222' 
TCOON,ioos:station:TCOON:031:1,2017-08-01T13:18:00Z,28.4073,-96.7122,0.0,1.6,355.0,2.8,'1111122,1111122,1111122' 
TCOON,ioos:station:TCOON:031:1,2017-08-01T13:24:00Z,28.4073,-96.7122,0.0,1.8,359.0,2.2,'11111222,11111222,11111222' 
TCOON,ioos:station:TCOON:031:1,2017-08-01T13:30:00Z,28.4073,-96.7122,0.0,2.1,19.0,2.5,'11111222,11111222,11111222' 
TCOON,ioos:station:TCOON:031:1,2017-08-01T13:36:00Z,28.4073,-96.7122,0.0,1.8,10.0,3.2,'11111222,11111222,11111222' 
TCOON,ioos:station:TCOON:031:1,2017-08-01T13:42:00Z,28.4073,-96.7122,0.0,1.9,25.0,2.6,'11111222,11111222,11111222' 
TCOON,ioos:station:TCOON:031:1,2017-08-01T13:48:00Z,28.4073,-96.7122,0.0,1.3,18.0,3.2,'11111222,11111222,11111222' 
TCOON,ioos:station:TCOON:031:1,2017-08-01T13:54:00Z,28.4073,-96.7122,0.0,1.5,24.0,2.2,'11111222,11111222,11111222' 
TCOON,ioos:station:TCOON:031:1,2017-08-01T14:00:00Z,28.4073,-96.7122,0.0,1.7,16.0,2.5,'11111222,11111222,11111222' 
TCOON,ioos:station:TCOON:031:1,2017-08-01T14:06:00Z,28.4073,-96.7122,0.0,1.7,25.0,2.7,'11111222,11111222,11111222' 
TCOON,ioos:station:TCOON:031:1,2017-08-01T14:12:00Z,28.4073,-96.7122,0.0,1.6,32.0,2.7,'11111222,11111222,11111222' 
TCOON,ioos:station:TCOON:031:1,2017-08-01T14:18:00Z,28.4073,-96.7122,0.0,0.5,26.0,2.2,'1111122,1111122,1111122' 
TCOON,ioos:station:TCOON:031:1,2017-08-01T14:24:00Z,28.4073,-96.7122,0.0,1.8,30.0,2.6,'11111222,11111222,11111222' 
TCOON,ioos:station:TCOON:031:1,2017-08-01T14:30:00Z,28.4073,-96.7122,0.0,1.5,17.0,2.3,'11111222,11111222,11111222' 
TCOON,ioos:station:TCOON:031:1,2017-08-01T14:36:00Z,28.4073,-96.7122,0.0,0.4,83.0,2.2,'11111222,11111222,11111222' 
TCOON,ioos:station:TCOON:031:1,2017-08-01T14:42:00Z,28.4073,-96.7122,0.0,0.6,14.0,2.0,'11111222,11111222,11111222' 
TCOON,ioos:station:TCOON:031:1,2017-08-01T14:48:00Z,28.4073,-96.7122,0.0,0.9,35.0,1.9,'11111222,11111222,11111222' 
TCOON,ioos:station:TCOON:031:1,2017-08-01T14:54:00Z,28.4073,-96.7122,0.0,0.9,56.0,2.2,'11111222,11111222,11111222' 
TCOON,ioos:station:TCOON:031:1,2017-08-01T15:00:00Z,28.4073,-96.7122,0.0,0.7,100.0,2.1,'11111222,11111222,11111222' 
TCOON,ioos:station:TCOON:031:1,2017-08-01T15:06:00Z,28.4073,-96.7122,0.0,1.5,121.0,1.8,'11111222,11111222,11111222' 
TCOON,ioos:station:TCOON:031:1,2017-08-01T15:12:00Z,28.4073,-96.7122,0.0,2.1,136.0,2.6,'11111222,11111222,11111222' 
TCOON,ioos:station:TCOON:031:1,2017-08-01T15:18:00Z,28.4073,-96.7122,0.0,1.8,130.0,2.2,'1111122,1111122,1111122' 
TCOON,ioos:station:TCOON:031:1,2017-08-01T15:24:00Z,28.4073,-96.7122,0.0,1.7,168.0,2.2,'11111222,11111222,11111222' 
TCOON,ioos:station:TCOON:031:1,2017-08-01T15:30:00Z,28.4073,-96.7122,0.0,1.5,207.0,1.8,'11111222,11111222,11111222' 
TCOON,ioos:station:TCOON:031:1,2017-08-01T15:36:00Z,28.4073,-96.7122,0.0,1.3,207.0,1.7,'11111222,11111222,11111222' 
TCOON,ioos:station:TCOON:031:1,2017-08-01T15:42:00Z,28.4073,-96.7122,0.0,1.0,198.0,1.3,'11111222,11111222,11111222' 
TCOON,ioos:station:TCOON:031:1,2017-08-01T15:48:00Z,28.4073,-96.7122,0.0,1.2,217.0,1.4,'11111222,11111222,11111222' 
TCOON,ioos:station:TCOON:031:1,2017-08-01T15:54:00Z,28.4073,-96.7122,0.0,1.9,214.0,2.2,'11111222,11111222,11111222' 
TCOON,ioos:station:TCOON:031:1,2017-08-01T16:00:00Z,28.4073,-96.7122,0.0,1.8,232.0,2.3,'11111222,11111222,11111222' 
TCOON,ioos:station:TCOON:031:1,2017-08-01T16:06:00Z,28.4073,-96.7122,0.0,2.3,201.0,2.8,'11111222,11111222,11111222' 
TCOON,ioos:station:TCOON:031:1,2017-08-01T16:12:00Z,28.4073,-96.7122,0.0,2.6,185.0,3.0,'11111222,11111222,11111222' 
TCOON,ioos:station:TCOON:031:1,2017-08-01T16:18:00Z,28.4073,-96.7122,0.0,2.4,180.0,2.8,'1111122,1111122,1111122' 
TCOON,ioos:station:TCOON:031:1,2017-08-01T16:24:00Z,28.4073,-96.7122,0.0,2.0,227.0,2.6,'11111222,11111222,11111222' 
TCOON,ioos:station:TCOON:031:1,2017-08-01T16:30:00Z,28.4073,-96.7122,0.0,3.1,183.0,3.8,'11111222,11111222,11111222' 
TCOON,ioos:station:TCOON:031:1,2017-08-01T16:36:00Z,28.4073,-96.7122,0.0,1.9,186.0,3.3,'11111222,11111222,11111222' 
TCOON,ioos:station:TCOON:031:1,2017-08-01T16:42:00Z,28.4073,-96.7122,0.0,2.6,189.0,3.3,'11111222,11111222,11111222' 
TCOON,ioos:station:TCOON:031:1,2017-08-01T16:48:00Z,28.4073,-96.7122,0.0,1.9,213.0,4.2,'11111222,11111222,11111222' 
TCOON,ioos:station:TCOON:031:1,2017-08-01T16:54:00Z,28.4073,-96.7122,0.0,2.4,189.0,3.5,'11111222,11111222,11111222' 
TCOON,ioos:station:TCOON:031:1,2017-08-01T17:00:00Z,28.4073,-96.7122,0.0,3.8,176.0,4.7,'11111222,11111222,11111222' 
TCOON,ioos:station:TCOON:031:1,2017-08-01T17:06:00Z,28.4073,-96.7122,0.0,3.5,183.0,4.3,'11111222,11111222,11111222' 
TCOON,ioos:station:TCOON:031:1,2017-08-01T17:12:00Z,28.4073,-96.7122,0.0,4.4,178.0,4.8,'11111222,11111222,11111222' 
TCOON,ioos:station:TCOON:031:1,2017-08-01T17:18:00Z,28.4073,-96.7122,0.0,4.3,173.0,4.7,'1111122,1111122,1111122' 
TCOON,ioos:station:TCOON:031:1,2017-08-01T17:24:00Z,28.4073,-96.7122,0.0,5.1,188.0,5.6,'11111222,11111222,11111222' 
TCOON,ioos:station:TCOON:031:1,2017-08-01T17:30:00Z,28.4073,-96.7122,0.0,4.9,187.0,5.8,'11111222,11111222,11111222' 
TCOON,ioos:station:TCOON:031:1,2017-08-01T17:36:00Z,28.4073,-96.7122,0.0,4.4,190.0,5.3,'11111222,11111222,11111222' 
TCOON,ioos:station:TCOON:031:1,2017-08-01T17:42:00Z,28.4073,-96.7122,0.0,5.0,186.0,5.7,'11111222,11111222,11111222' 
TCOON,ioos:station:TCOON:031:1,2017-08-01T17:48:00Z,28.4073,-96.7122,0.0,4.8,175.0,5.3,'11111222,11111222,11111222' 
TCOON,ioos:station:TCOON:031:1,2017-08-01T17:54:00Z,28.4073,-96.7122,0.0,5.0,178.0,5.7,'11111222,11111222,11111222' 
TCOON,ioos:station:TCOON:031:1,2017-08-01T18:00:00Z,28.4073,-96.7122,0.0,5.0,186.0,5.9,'11111222,11111222,11111222' 
TCOON,ioos:station:TCOON:031:1,2017-08-01T18:06:00Z,28.4073,-96.7122,0.0,5.2,183.0,5.8,'11111222,11111222,11111222' 
TCOON,ioos:station:TCOON:031:1,2017-08-01T18:12:00Z,28.4073,-96.7122,0.0,5.5,178.0,6.2,'11111222,11111222,11111222' 
TCOON,ioos:station:TCOON:031:1,2017-08-01T18:18:00Z,28.4073,-96.7122,0.0,4.9,178.0,6.2,'11111222,11111222,11111222' 
TCOON,ioos:station:TCOON:031:1,2017-08-01T18:24:00Z,28.4073,-96.7122,0.0,5.0,183.0,5.8,'11111222,11111222,11111222' 
TCOON,ioos:station:TCOON:031:1,2017-08-01T18:30:00Z,28.4073,-96.7122,0.0,5.2,185.0,6.2,'11111222,11111222,11111222' 
TCOON,ioos:station:TCOON:031:1,2017-08-01T18:36:00Z,28.4073,-96.7122,0.0,5.5,182.0,6.5,'11111222,11111222,11111222' 
TCOON,ioos:station:TCOON:031:1,2017-08-01T18:42:00Z,28.4073,-96.7122,0.0,4.6,190.0,5.9,'11111222,11111222,11111222' 
TCOON,ioos:station:TCOON:031:1,2017-08-01T18:48:00Z,28.4073,-96.7122,0.0,4.4,185.0,5.2,'11111222,11111222,11111222' 
TCOON,ioos:station:TCOON:031:1,2017-08-01T18:54:00Z,28.4073,-96.7122,0.0,5.0,188.0,6.7,'11111222,11111222,11111222' 
TCOON,ioos:station:TCOON:031:1,2017-08-01T19:00:00Z,28.4073,-96.7122,0.0,5.1,192.0,6.3,'11111222,11111222,11111222' 
TCOON,ioos:station:TCOON:031:1,2017-08-01T19:06:00Z,28.4073,-96.7122,0.0,5.4,180.0,5.8,'11111222,11111222,11111222' 
TCOON,ioos:station:TCOON:031:1,2017-08-01T19:12:00Z,28.4073,-96.7122,0.0,5.3,185.0,5.8,'11111222,11111222,11111222' 
TCOON,ioos:station:TCOON:031:1,2017-08-01T19:18:00Z,28.4073,-96.7122,0.0,4.8,174.0,6.0,'11111222,11111222,11111222' 
TCOON,ioos:station:TCOON:031:1,2017-08-01T19:24:00Z,28.4073,-96.7122,0.0,4.6,173.0,5.9,'11111222,11111222,11111222' 
TCOON,ioos:station:TCOON:031:1,2017-08-01T19:30:00Z,28.4073,-96.7122,0.0,4.4,168.0,5.7,'1111122,1111122,1111122' 
TCOON,ioos:station:TCOON:031:1,2017-08-01T19:36:00Z,28.4073,-96.7122,0.0,4.0,130.0,5.4,'11111222,11111222,11111222' 
TCOON,ioos:station:TCOON:031:1,2017-08-01T19:42:00Z,28.4073,-96.7122,0.0,2.9,101.0,5.6,'11111222,11111222,11111222' 
TCOON,ioos:station:TCOON:031:1,2017-08-01T19:48:00Z,28.4073,-96.7122,0.0,3.6,141.0,5.5,'11111222,11111222,11111222' 
TCOON,ioos:station:TCOON:031:1,2017-08-01T19:54:00Z,28.4073,-96.7122,0.0,4.2,124.0,6.1,'11111222,11111222,11111222' 
TCOON,ioos:station:TCOON:031:1,2017-08-01T20:00:00Z,28.4073,-96.7122,0.0,3.2,119.0,5.3,'11111222,11111222,11111222' 
TCOON,ioos:station:TCOON:031:1,2017-08-01T20:06:00Z,28.4073,-96.7122,0.0,4.2,150.0,7.4,'11111222,11111222,11111222' 
TCOON,ioos:station:TCOON:031:1,2017-08-01T20:12:00Z,28.4073,-96.7122,0.0,4.0,112.0,5.5,'11111222,11111222,11111222' 
TCOON,ioos:station:TCOON:031:1,2017-08-01T20:18:00Z,28.4073,-96.7122,0.0,3.9,108.0,5.3,'11111222,11111222,11111222' 
TCOON,ioos:station:TCOON:031:1,2017-08-01T20:24:00Z,28.4073,-96.7122,0.0,3.7,102.0,5.2,'1111122,1111122,1111122' 
TCOON,ioos:station:TCOON:031:1,2017-08-01T20:30:00Z,28.4073,-96.7122,0.0,5.5,115.0,8.3,'11111222,11111222,11111222' 